This is the latest recevied weather packets stored in our database for station/object G4WLC-1. If no packets are shown the sender has not sent any weather packets the latest 10 day(s).
| Time | Temp. | Humidity | Pressure | Rain* | Wind** | Luminosity | Snow |
|---|---|---|---|---|---|---|---|
| 1778152979 | 15° C | 68% | 1015.6 hPa | 0 mm | - | - | - |
| 1778152678 | 14.44° C | 70% | 1015.5 hPa | 0 mm | - | - | - |
| 1778152378 | 14.44° C | 69% | 1015.7 hPa | 0 mm | - | - | - |
| 1778152079 | 14.44° C | 67% | 1015.8 hPa | 0 mm | - | - | - |
| 1778151778 | 14.44° C | 71% | 1015.7 hPa | 0 mm | - | - | - |
| 1778151479 | 14.44° C | 69% | 1015.7 hPa | 0 mm | - | - | - |
| 1778151179 | 14.44° C | 72% | 1015.9 hPa | 0 mm | - | - | - |
| 1778150878 | 14.44° C | 71% | 1015.9 hPa | 0 mm | - | - | - |
| 1778150578 | 14.44° C | 75% | 1016 hPa | 0 mm | - | - | - |
| 1778150278 | 14.44° C | 73% | 1016 hPa | 0 mm | - | - | - |
| 1778149978 | 13.89° C | 74% | 1015.8 hPa | 0 mm | - | - | - |
| 1778149679 | 13.89° C | 75% | 1015.9 hPa | 0 mm | - | - | - |
| 1778149379 | 13.33° C | 75% | 1015.9 hPa | 0 mm | - | - | - |
| 1778149079 | 13.33° C | 76% | 1015.9 hPa | 0 mm | - | - | - |
| 1778148779 | 12.78° C | 77% | 1015.8 hPa | 0 mm | - | - | - |
| 1778148479 | 12.78° C | 78% | 1015.9 hPa | 0 mm | - | - | - |
| 1778148179 | 12.22° C | 77% | 1015.7 hPa | 0 mm | - | - | - |
| 1778147879 | 12.22° C | 79% | 1015.7 hPa | 0 mm | - | - | - |
| 1778147579 | 11.67° C | 79% | 1015.9 hPa | 0 mm | - | - | - |
| 1778147279 | 11.67° C | 79% | 1015.9 hPa | 0 mm | - | - | - |
| 1778146979 | 11.11° C | 80% | 1016 hPa | 0 mm | - | - | - |
| 1778146679 | 11.11° C | 80% | 1015.9 hPa | 0 mm | - | - | - |
| 1778146379 | 11.11° C | 82% | 1015.9 hPa | 0 mm | - | - | - |
| 1778146079 | 10.56° C | 81% | 1015.9 hPa | 0 mm | - | - | - |
| 1778145779 | 10.56° C | 83% | 1015.9 hPa | 0 mm | - | - | - |
* Rain latest hour (hover to see other rain measurements)
** Current wind speed in m/s (hover to see current wind gust speed)